Laurinburg-Maxton, NC

2:33 AM EDT on April 24, 2018 (GMT -0400)
Laurinburg-Maxton

Weather History for KMEB - October, 2013

Change the Weather History Date:

Monday, October 7, 2013

  Actual Average (KHFF) Record (KHFF)
Temperature  
Mean Temperature 72 °F -  
Max Temperature 77 °F 73 °F 84 °F (2002)
Min Temperature 64 °F 53 °F 42 °F (2010)
Cooling Degree Days 6    
Growing Degree Days 22 (Base 50)    
Moisture  
Dew Point 70 °F    
Average Humidity 95    
Maximum Humidity 100    
Minimum Humidity 82    
Precipitation  
Precipitation 0.32 in - - ()
Sea Level Pressure  
Sea Level Pressure 29.90 in    
Wind  
Wind Speed 7 mph (South)    
Max Wind Speed 20 mph    
Max Gust Speed 23 mph    
Visibility 8 miles    
Events Rain , Thunderstorm    
Averages and records for this station are not official NWS values.
T = Trace of Precipitation, MM = Missing Value Source: NWS Daily Summary

Daily Weather History Graph

Daily Weather History Graph

Search for Another Location

Airport or City:

Astronomy

Oct. 07, 2013 Rise Set
Actual Time 7:16 AM EDT 6:52 PM EDT
Civil Twilight 6:51 AM EDT 7:18 PM EDT
Nautical Twilight 6:22 AM EDT 7:47 PM EDT
Astronomical Twilight 5:53 AM EDT 8:16 PM EDT
Moon 9:57 AM EDT (10/7) 8:44 PM EDT (10/7)
Length of Visible Light 12h 26m
Length of Day
11h 35m
Waxing Crescent, 8% of the Moon is Illuminated
Oct 7
Waxing Crescent
Oct 11
First Quarter
Oct 18
Full
Oct 26
Last Quarter
Nov 3
New

Hourly Weather History & Observations

Time (EDT) Temp. Dew Point Humidity Pressure Visibility Wind Dir Wind Speed Gust Speed Precip Events Conditions
12:52 AM 69.1 °F 68.0 °F 96% 29.94 in 10.0 mi SSE 5.8 mph - N/A   Partly Cloudy
1:52 AM 69.1 °F 68.0 °F 96% 29.93 in 10.0 mi SSE 4.6 mph - N/A   Partly Cloudy
2:52 AM 70.0 °F 69.1 °F 97% 29.90 in 10.0 mi Calm Calm - N/A   Scattered Clouds
3:52 AM 70.0 °F 69.1 °F 97% 29.88 in 10.0 mi South 4.6 mph - N/A   Mostly Cloudy
4:52 AM 70.0 °F 69.1 °F 97% 29.88 in 10.0 mi SSE 5.8 mph - 0.00 in Rain Light Rain
5:34 AM 71.6 °F 69.8 °F 94% 29.88 in 10.0 mi South 6.9 mph - 0.02 in Rain Light Rain
5:47 AM 69.8 °F 69.8 °F 100% 29.88 in 10.0 mi South 6.9 mph - 0.02 in Rain Light Rain
5:52 AM 70.0 °F 70.0 °F 100% 29.88 in 10.0 mi South 8.1 mph - 0.02 in   Overcast
6:22 AM 69.8 °F 69.8 °F 100% 29.88 in 10.0 mi South 5.8 mph - N/A   Mostly Cloudy
6:29 AM 69.8 °F 69.8 °F 100% 29.88 in 10.0 mi South 6.9 mph - N/A   Mostly Cloudy
6:49 AM 71.6 °F 69.8 °F 94% 29.89 in 10.0 mi South 5.8 mph - 0.00 in   Mostly Cloudy
6:52 AM 71.1 °F 70.0 °F 96% 29.88 in 10.0 mi South 5.8 mph - 0.00 in   Mostly Cloudy
7:01 AM 71.6 °F 69.8 °F 94% 29.89 in 8.0 mi South 5.8 mph - 0.01 in Rain Light Rain
7:47 AM 71.6 °F 69.8 °F 94% 29.88 in 10.0 mi South 8.1 mph - 0.01 in   Mostly Cloudy
7:52 AM 71.1 °F 70.0 °F 96% 29.88 in 10.0 mi South 6.9 mph - 0.01 in   Mostly Cloudy
8:39 AM 71.6 °F 71.6 °F 100% 29.89 in 4.0 mi South 6.9 mph - 0.01 in Rain Light Rain
8:52 AM 72.0 °F 71.1 °F 97% 29.89 in 7.0 mi SSW 5.8 mph - 0.02 in Rain Light Rain
9:32 AM 73.4 °F 71.6 °F 94% 29.90 in 10.0 mi South 9.2 mph - 0.02 in   Overcast
9:39 AM 73.4 °F 71.6 °F 94% 29.90 in 5.0 mi South 9.2 mph - 0.02 in Rain Rain
9:52 AM 73.0 °F 72.0 °F 96% 29.90 in 7.0 mi SSW 8.1 mph - 0.03 in Rain Light Rain
10:14 AM 73.4 °F 71.6 °F 94% 29.91 in 5.0 mi SW 5.8 mph - 0.02 in Rain Light Rain
10:29 AM 73.4 °F 71.6 °F 94% 29.91 in 4.0 mi SW 5.8 mph - 0.03 in Rain Light Rain
10:52 AM 73.0 °F 71.1 °F 93% 29.91 in 3.0 mi SW 11.5 mph 21.9 mph 0.05 in Rain Rain
10:59 AM 73.4 °F 71.6 °F 94% 29.92 in 3.0 mi SW 8.1 mph - 0.02 in Rain Light Rain
11:01 AM 73.4 °F 71.6 °F 94% 29.92 in 2.5 mi SSW 10.4 mph - 0.03 in Rain Heavy Rain
11:07 AM 73.4 °F 71.6 °F 94% 29.92 in 1.8 mi SSW 10.4 mph - 0.05 in Rain Light Rain
11:16 AM 73.4 °F 71.6 °F 94% 29.91 in 2.5 mi SSW 9.2 mph - 0.06 in Rain Light Rain
11:23 AM 73.4 °F 71.6 °F 94% 29.91 in 3.0 mi SSW 11.5 mph - 0.08 in Rain Rain
11:52 AM 72.0 °F 69.1 °F 91% 29.90 in 10.0 mi South 13.8 mph 23.0 mph 0.08 in   Overcast
12:52 PM 73.0 °F 70.0 °F 90% 29.90 in 10.0 mi South 9.2 mph - N/A   Overcast
1:52 PM 77.0 °F 71.1 °F 82% 29.86 in 10.0 mi South 15.0 mph - N/A   Partly Cloudy
2:25 PM 75.2 °F 69.8 °F 83% 29.88 in 10.0 mi SSW 8.1 mph - N/A   Overcast
2:52 PM 75.0 °F 70.0 °F 84% 29.88 in 10.0 mi WSW 5.8 mph - N/A Thunderstorm Overcast
3:11 PM 73.4 °F 71.6 °F 94% 29.87 in 6.0 mi SW 4.6 mph - 0.02 in Rain , Thunderstorm Rain
3:25 PM 73.4 °F 71.6 °F 94% 29.87 in 5.0 mi South 3.5 mph - 0.03 in Rain Light Rain
3:52 PM 72.0 °F 71.1 °F 97% 29.85 in 4.0 mi SSE 8.1 mph - 0.10 in Rain Rain
4:52 PM 73.0 °F 71.1 °F 93% 29.86 in 10.0 mi South 6.9 mph - 0.01 in   Partly Cloudy
5:52 PM 73.0 °F 72.0 °F 96% 29.85 in 10.0 mi SE 3.5 mph - N/A   Clear
6:52 PM 72.0 °F 71.1 °F 97% 29.87 in 10.0 mi Calm Calm - N/A   Clear
7:52 PM 72.0 °F 71.1 °F 97% 29.89 in 9.0 mi North 4.6 mph - N/A   Mostly Cloudy
8:52 PM 72.0 °F 71.1 °F 97% 29.90 in 7.0 mi NNW 5.8 mph - N/A   Mostly Cloudy
9:18 PM 71.6 °F 71.6 °F 100% 29.91 in 8.0 mi NNE 5.8 mph - N/A   Scattered Clouds
9:52 PM 71.1 °F 71.1 °F 100% 29.91 in 9.0 mi NNE 4.6 mph - N/A   Mostly Cloudy
10:52 PM 71.1 °F 71.1 °F 100% 29.94 in 8.0 mi North 5.8 mph - N/A   Mostly Cloudy
11:06 PM 71.6 °F 71.6 °F 100% 29.95 in 9.0 mi North 5.8 mph - N/A   Overcast
11:20 PM 69.8 °F 69.8 °F 100% 29.95 in 9.0 mi North 17.3 mph 20.7 mph N/A   Overcast
11:30 PM 66.2 °F 64.4 °F 94% 29.95 in 10.0 mi North 19.6 mph - N/A   Overcast
11:52 PM 64.9 °F 63.0 °F 93% 29.95 in 10.0 mi North 12.7 mph 21.9 mph N/A   Overcast